(45) Eugenia
ephemeris date magn radius delta ra dec elong phase
Today19 Jul 202513.72.945 AU3.533 AU04h32m+16°21'47.6°14.8°
Opposition13 Dec 202511.82.917 AU1.940 AU05h28m+14°09'170.9°3.1°
(45) Eugenia - 2025-07-19
astro.vanbuitenen.nl


 
-1 year
-1 month
-1 day
Now
+1 day
+1 month
+1 year

The interactive orbit chart above shows the body's path through the solar system and its position at the given date. Green and blue lines are shown perpendicular to the ecliptic plane: Green if the path is above the ecliptic plane, blue if it is below. (Left-click and drag to rotate the view; Right-click and drag to move the view; Use scroll wheel to zoom in our out.)

The orbital elements of Eugenia are:

            e (Eccentricity)                : 0.0827964
            a (Semimajor axis)              : 2.7200035
            i (Inclination)                 : 6.60546
            Ω (Longitude of ascending node) : 147.57873
            ω (Argument of perihelion)      : 87.32094
            M (Mean anomaly)                : 162.57568
            Epoch                           : 2025 May 05

            L (Longitude of perihelion)     : 234.88179
            B (Latitude of perihelion)      : 6.59821
            P (Orbital period in years)     : 4.49            
        

The light curve chart below shows the estimated development of the minor planet's magnitude.


The all-sky chart below shows the path of the minor planet over the same period as the light curve. The current position is marked yellow.





The following chart shows the path of the minor planet in the next few days. The field of view is optimized for (~10x50) binoculars and finderscopes. A more printer-friendly version of the same chart can be found below.




Ephemerides:
Date       Time       RA (2000)    DEC (2000)    delta   radius  elong  phase   PA    magn
2025-07-19 00:00 UT   04 32 10.9   +16 21 01     3.533    2.945   47.6   14.8   256   13.7 
2025-07-19 04:56 UT   04 32 28.1   +16 21 26     3.531    2.945   47.7   14.8   256   13.7 
2025-07-20 00:00 UT   04 33 34.4   +16 23 01     3.523    2.945   48.2   14.9   257   13.7 
2025-07-21 00:00 UT   04 34 57.6   +16 24 56     3.513    2.945   48.8   15.1   257   13.7 
2025-07-22 00:00 UT   04 36 20.5   +16 26 46     3.503    2.945   49.5   15.2   257   13.7 
2025-07-23 00:00 UT   04 37 43.0   +16 28 33     3.492    2.945   50.1   15.3   257   13.7 
2025-07-24 00:00 UT   04 39 05.3   +16 30 15     3.482    2.945   50.7   15.5   257   13.7 
2025-07-25 00:00 UT   04 40 27.2   +16 31 54     3.471    2.945   51.3   15.6   258   13.7 
2025-07-26 00:00 UT   04 41 48.7   +16 33 28     3.461    2.945   51.9   15.8   258   13.7 
2025-07-27 00:00 UT   04 43 09.9   +16 34 58     3.450    2.945   52.6   15.9   258   13.7 
2025-07-28 00:00 UT   04 44 30.7   +16 36 24     3.439    2.945   53.2   16.0   258   13.7 
2025-07-29 00:00 UT   04 45 51.1   +16 37 46     3.428    2.945   53.8   16.2   259   13.7 
2025-07-30 00:00 UT   04 47 11.2   +16 39 03     3.417    2.945   54.5   16.3   259   13.7 
2025-07-31 00:00 UT   04 48 30.8   +16 40 17     3.406    2.945   55.1   16.4   259   13.7 
2025-08-01 00:00 UT   04 49 50.1   +16 41 27     3.395    2.945   55.7   16.5   259   13.7 
2025-08-02 00:00 UT   04 51 08.9   +16 42 32     3.383    2.945   56.4   16.7   259   13.7 
2025-08-03 00:00 UT   04 52 27.3   +16 43 34     3.372    2.945   57.0   16.8   260   13.6 
2025-08-04 00:00 UT   04 53 45.3   +16 44 31     3.360    2.945   57.6   16.9   260   13.6 
2025-08-05 00:00 UT   04 55 02.9   +16 45 25     3.349    2.945   58.3   17.0   260   13.6 
2025-08-06 00:00 UT   04 56 20.0   +16 46 15     3.337    2.945   58.9   17.2   260   13.6 
2025-08-07 00:00 UT   04 57 36.7   +16 47 01     3.325    2.945   59.6   17.3   260   13.6 
2025-08-08 00:00 UT   04 58 52.9   +16 47 43     3.314    2.945   60.2   17.4   261   13.6 
2025-08-09 00:00 UT   05 00 08.7   +16 48 21     3.302    2.945   60.9   17.5   261   13.6 
2025-08-10 00:00 UT   05 01 23.9   +16 48 55     3.290    2.945   61.5   17.6   261   13.6 
2025-08-11 00:00 UT   05 02 38.7   +16 49 25     3.278    2.945   62.2   17.7   261   13.6 
2025-08-12 00:00 UT   05 03 53.0   +16 49 52     3.266    2.945   62.9   17.8   261   13.6 
2025-08-13 00:00 UT   05 05 06.8   +16 50 14     3.253    2.945   63.5   17.9   262   13.6 
2025-08-14 00:00 UT   05 06 20.1   +16 50 33     3.241    2.945   64.2   18.0   262   13.6 
2025-08-15 00:00 UT   05 07 32.8   +16 50 49     3.229    2.944   64.8   18.1   262   13.6 


    Terminology:
            
    delta:  distance between minor planet and earth in AU
    radius: distance between minor planet and sun in AU
    magn:   magnitude (brightness) estimate    
    ra:     right ascension in hours (24h = 360deg)
    dec:    declination in degrees
    elong:  elongation in degrees (angle sun-earth-minor planet)    
    phase:  phase angle in degrees (angle sun-minor planet-earth)        
    AU:     Astronomical Unit (mean distance between earth and sun: 149597870.7 km
    

Orbital elements provided by the MPC (Minor Planet Center).
Calculations by a modified version of AAPlus, a C# implementation of the AA+ project by PJ Naughter from the algorithms presented in the book "Astronomical Algorithms" by Jean Meeus.
NGC2000 dso catalog and star labels from VizieR as provided by the Strasbourg astronomical Data Center.
Tycho2 catalog from the ESO archive.